Weather in Ranong

Thailand     9°58′27″N   98°39′09″E
temp.,
°C
wind,
m/s
gust,
m/s
humid.,
%
clouds,
%
prec.,
mm/h
press.,
hPa
HPBL,
m
17 may, tue
tue1701:00+24sw2394100 0.3 1009105
04:00+24sw2395100 0.4 1008112
07:00+25wsw1293100 1.6 1010107
10:00+28nw228160 2.5 1011630
13:00+28w238183 6.3 1009768
16:00+26w2391100 4.4 1008292
19:00+24w2496100 7.4 1010204
22:00+24wsw2597100 2.5 1012345
18 may, wed
wed1801:00+24w2497100 3.1 1010270
04:00+23w2494100 0.4 1009161
07:00+24wsw129399 0.4 101178
10:00+28wsw2374100 0.3 10121010
13:00+30w246085 1.1 10101337
16:00+28w346299 0.1 10091000
19:00+24w128767 0.4 101151
22:00+24wsw128899 0.0 101379
19 may, thu
thu1901:00+23sw229275 0.1 101183
04:00+23sw1296100 0.3 101072
07:00+24sw1393100 0.8 1012130
10:00+26sw2486100 0.3 1012410
13:00+28wsw2573100 0.4 1010953
16:00+29wsw3567100 0.4 10091095
19:00+24wsw2391100 0.8 1010110
22:00+24wsw2494100 0.2 1012169
20 may, fri
fri2001:00+24wsw2494100 0.8 1011173
04:00+24sw2693100 3.6 1009234
07:00+24sw279365 6.3 1010350
10:00+26wsw388591 1.7 1011921
13:00+27wsw498154 3.8 10091050
16:00+26wsw4985100 2.0 10081013
19:00+25wsw31091100 3.8 1009770
22:00+24wsw41192100 2.6 1011767
21 may, sat
sat2101:00+24wsw3109392 4.7 1009840
04:00+24wsw3109299 1.3 1008826
07:00+24wsw31092100 2.3 1009832
10:00+26wsw41187100 1.6 10091036
13:00+26wsw41289100 4.0 10071121
16:00+26wsw41288100 3.9 10051169
19:00+25wsw51386100 5.7 10071098
22:00+25wsw51485100 1.3 10081285